Flag for Iran Weather past 2 weeks in Bandar-Abbas, Iran

Now
57 °F

Passing clouds.


Feels Like: 57 °F
Forecast: 55 / 79 °F
Wind: 5 mph from Northwest

Location: Bandarabbass

Current Time: Mar 2, 2015 at 7:23:57 AM

Latest Report: Mar 2, 2015 at 7:00 AM


Visibility: 4 mi

Pressure: 29.89 "Hg

Humidity: 88%

Dew point: 54 °F

Location of Bandar-AbbasLocation

Historic Weather in Bandar-Abbas — Graph

°F

Bandar-Abbas temperature yesterday

Maximum temperature yesterday: 73 °F (at 10:20 AM)
Minimum temperature yesterday: 52 °F (at 2:30 AM)
Average temperature yesterday: 66 °F

Past Weeks' High & Low Weather Summary

 TemperatureHumidityPressure
High88 °F (Feb 19, 11:00 AM)94% (Feb 17, 7:00 AM)30.09 "Hg (Feb 17, 7:00 AM)
Low46 °F (Feb 28, 5:30 AM)21% (Feb 25, 12:00 PM)29.68 "Hg (Feb 20, 5:20 PM)
Average70 °F54%29.88 "Hg
* Reported Feb 15 5:55 AM — Mar 2 5:30 AM, Bandar-Abbas, Weather by CustomWeather, © 2015

Note: Actual official high and low records may vary slightly from our data, if they occured in-between our weather recording intervals... More about our weather records

Advertising

Bandar-Abbas weather history for previous 24 hours

 ConditionsComfort  
Time TempWeatherWind HumidityBarometerVisibility
5:30 AM
Mon, Mar 2
57 °FPassing clouds.7 mph82%29.83 "HgN/A
4:30 AM59 °FPassing clouds.5 mph82%29.83 "HgN/A
3:20 AM59 °FPassing clouds.5 mph82%29.83 "HgN/A
2:30 AM59 °FClear.5 mph82%29.83 "Hg10 mi
1:30 AM61 °FClear.5 mph77%29.83 "Hg10 mi
1:00 AM63 °FClear.9 mph73%29.83 "Hg10 mi
12:30 AM66 °FClear.5 mph73%29.83 "Hg10 mi
12:00 AM66 °FClear.7 mph73%29.83 "Hg10 mi
11:30 PM
Sun, Mar 1
68 °FClear.7 mph69%29.83 "Hg10 mi
11:00 PM68 °FClear.9 mph64%29.86 "Hg10 mi
10:30 PM68 °FClear.7 mph64%29.86 "Hg10 mi
10:00 PM68 °FClear.7 mph64%29.86 "Hg10 mi
9:20 PM68 °FClear.9 mph64%29.86 "Hg10 mi
9:00 PM68 °FClear.9 mph64%29.86 "Hg10 mi
8:30 PM68 °FClear.14 mph69%29.86 "Hg10 mi
8:00 PM68 °FClear.14 mph69%29.86 "Hg10 mi
7:30 PM70 °FClear.12 mph64%29.86 "Hg10 mi
7:00 PM70 °FClear.12 mph64%29.83 "Hg10 mi
6:30 PM70 °FClear.16 mph64%29.83 "Hg10 mi
6:00 PM70 °FSunny.16 mph60%29.83 "Hg10 mi
5:30 PM72 °FSunny.14 mph57%29.83 "Hg10 mi
5:00 PM72 °FSunny.18 mph57%29.83 "Hg10 mi
4:30 PM73 °FSunny.18 mph53%29.80 "Hg10 mi
4:00 PM73 °FSunny.18 mph53%29.83 "Hg10 mi
3:30 PM73 °FSunny.16 mph50%29.83 "Hg10 mi
3:00 PM73 °FSunny.18 mph44%29.83 "Hg10 mi
2:30 PM73 °FSunny.16 mph41%29.86 "Hg10 mi
2:00 PM73 °FSunny.14 mph38%29.86 "Hg10 mi
1:30 PM73 °FSunny.9 mph36%29.89 "Hg10 mi
1:00 PM73 °FSunny.12 mph31%29.89 "Hg10 mi
12:30 PM73 °FSunny.14 mph33%29.92 "Hg10 mi
12:00 PM73 °FSunny.9 mph29%29.92 "Hg10 mi
11:30 AM73 °FSunny.9 mph27%29.95 "Hg10 mi
11:00 AM73 °FSunny.9 mph23%29.95 "Hg10 mi
10:20 AM73 °FSunny.5 mph22%29.95 "Hg10 mi
10:00 AM72 °FSunny.9 mph22%29.95 "Hg10 mi
9:30 AM68 °FSunny.7 mph24%29.98 "Hg10 mi
9:00 AM68 °FSunny.7 mph26%29.98 "Hg10 mi
8:30 AM66 °FSunny.9 mph26%29.98 "Hg10 mi
8:00 AM63 °FSunny.9 mph32%29.95 "Hg10 mi
7:30 AM61 °FSunny.7 mph36%29.95 "Hg10 mi
7:00 AM54 °FSunny.7 mph41%29.95 "Hg10 mi
Weather by CustomWeather, © 2015

See weather overviewHow to use our weather pages